Regional Weather Roundup
Issued by NWS

Home | Current Version | Previous Version | Graphics & Text | Print | Product List | Glossary On
Versions: 1 2 3 4 5 6 7 8 9 10 11 12 13 14 15 16 17 18 19 20 21 22 23 24 25 26 27 28 29 30 31 32 33 34 35 36 37 38 39 40 41 42 43 44 45 46 47 48 49 50
000
ASUS45 KBOU 020510
RWRCO

WEATHER ROUNDUP FOR COLORADO
NATIONAL WEATHER SERVICE DENVER/BOULDER CO
1100 PM MDT WED JUL 01 2015

NOTE: "FAIR" INDICATES FEW OR NO CLOUDS BELOW 12000 FEET WITH NO
SIGNIFICANT WEATHER AND/OR OBSTRUCTIONS TO VISIBILITY.

COZ001>005-013-030-031-020600-
...NORTHWEST COLORADO...

CITY           SKY/WX    TMP DP  RH WIND       PRES   REMARKS
CRAIG          PTCLDY    72  46  39 N6        30.16S
HAYDEN         PTCLDY    64  45  48 E12       30.20S
MEEKER         MOCLDY    67  53  61 E3        30.19R
MOUNT WERNER   NOT AVBL
STEAMBOAT SPGS PTCLDY    58  48  69 CALM      30.24R
WALDEN         CLEAR     54  48  82 E7        30.34R
$$

COZ006>008-011-020600-
...WEST CENTRAL VALLEYS...

CITY           SKY/WX    TMP DP  RH WIND       PRES   REMARKS
GRAND JUNCTION PTCLDY    79  49  34 S3        30.02R
MONTROSE       CLOUDY    81  49  32 W3        30.12R
EAGLE          PTCLDY    66  55  68 NE5       30.24R
RIFLE          PTCLDY    74  52  46 E12       30.11R
DELTA          CLOUDY    83  51  32 NE3       30.06S
NUCLA          CLOUDY    77  46  33 E8        30.16R
$$

COZ017>023-064>068-020600-
...SOUTHWEST COLORADO...

CITY           SKY/WX    TMP DP  RH WIND       PRES   REMARKS
DURANGO        CLOUDY    66  50  56 CALM      30.21R
CORTEZ         PTCLDY    76  51  41 VRB7      30.12R
PAGOSA SPRINGS CLOUDY    62  48  60 CALM      30.32S
TELLURIDE      CLOUDY    66  43  42 CALM      30.43S
WOLF CREEK PAS NOT AVBL
$$

COZ009-010-012-014-032>034-037-058>063-020600-
...CENTRAL COLORADO...

CITY           SKY/WX    TMP DP  RH WIND       PRES   REMARKS
ASPEN          MOCLDY    64  50  60 SW6       30.32R
BUENA VISTA    DRIZZLE   57  54  87 E3        30.40S
COPPER MTN     PTCLDY    54  41  62 S12       30.67F
BERTHOUD PASS  MOCLDY    46  36  66 W14       30.71S
COTTONWOOD PAS NOT AVBL
GUNNISON       MOCLDY    68  45  42 E13G20    30.35R
KREMMLING      MOCLDY    64  45  48 S8        30.31R
LEADVILLE      MOCLDY    50  49  96 CALM      30.51S
MONARCH PASS   LGT RAIN  46  45  93 NE15      30.78R VSB<1/4
SALIDA         CLOUDY    62  56  79 W10       30.44S
SUNLIGHT       PTCLDY    59  45  58 NE5       30.59R
WILKERSON PASS MOCLDY    46  45  93 SW8       30.63F
$$

COZ069>075-020600-
...SAN LUIS VALLEY/SANGRE DE CRISTO MOUNTAINS...

CITY           SKY/WX    TMP DP  RH WIND       PRES   REMARKS
ALAMOSA        CLOUDY    58  54  86 CALM      30.34R
LA VETA PASS     N/A     50  46  87 MISG      30.54S
SAGUACHE       MOCLDY    55  54  94 NE7       30.39S
$$

COZ035-036-038>040-020600-
...NORTHERN COLORADO FRONT RANGE...

CITY           SKY/WX    TMP DP  RH WIND       PRES   REMARKS
DENVER INTL AP PTCLDY    64  55  72 S9        30.16F
DMNS CITY PARK   N/A     68  57  67 SW6       30.17S
AURORA         MOCLDY    64  56  73 S8        30.19F
FRONT RANGE AP NOT AVBL
ERIE MUNI ARPT PTCLDY    66  59  78 CALM      30.15F
BOULDER MUN AP PTCLDY    70  55  60 SW3       30.16F
CENTENNIAL     MOCLDY    64  56  75 S10       30.20F
BROOMFIELD     NOT AVBL
FORT COLLINS   PTCLDY    66  57  72 CALM      30.15F
LONGMONT       PTCLDY    67  58  72 CALM      30.17S
$$

COZ041-046-047-076>085-087-088-020600-
...PIKES PEAK/PALMER DIVIDE AND SOUTHERN FOOTHILLS...

CITY           SKY/WX    TMP DP  RH WIND       PRES   REMARKS
COLO. SPRINGS  MOCLDY    65  61  87 CALM      30.27F
A. F. ACADEMY  MOCLDY    60  59  99 N2        30.28F
ELLICOTT       MOCLDY   N/A N/A N/A SE7       30.26S
FALCON         MOCLDY    61  56  84 CALM      30.32F
FORT CARSON    CLOUDY    64  60  86 VRB3      30.25S
LIMON          MOCLDY    61  59  93 S5        30.20F
MONUMENT HILL  MOCLDY    57  54  88 S10       30.31F
TRINIDAD       CLOUDY    63  60  90 SW7       30.24F
$$

COZ042>045-048>051-090-091-020600-
...NORTHEAST COLORADO...

CITY           SKY/WX    TMP DP  RH WIND       PRES   REMARKS
GREELEY ARPT   MOCLDY    64  61  88 S6        30.12F
AKRON          MOCLDY    67  57  70 E9        30.14R
BURLINGTON     CLOUDY    69  58  67 SW12      30.07F
WRAY           MOCLDY    71  60  67 SW17G24   30.07F
STERLING       MOCLDY    72  59  64 S12         N/A
HOLYOKE        MOCLDY    79  57  47 W10       30.07R
FORT MORGAN    MOCLDY    66  57  74 SW7       30.11F
$$

COZ086-089-092>099-020600-
...SOUTHEAST COLORADO...

CITY           SKY/WX    TMP DP  RH WIND       PRES   REMARKS
PUEBLO         CLOUDY    69  63  81 N5        30.20R
LA JUNTA       CLOUDY    69  64  84 SE7       30.15R
LAMAR          LGT RAIN  67  64  90 SE7       30.11F
SPRINGFIELD      N/A     64  63  96 NW23G32   30.16R
$$



USA.gov is the U.S. government's official web portal to all federal, state and local government web resources and services.